| time (UTC) | temp C | wind direction | speed KPH | gust KPH | rain 1hr cm | rain 24hr cm | rain mn cm | humidity % | barometer mb |
| 20260505011006 | 12 | 125 | 0.0 | 1.6 | 0.00 | 0.00 | 0.00 | 59 | 1006.8 |
| 20260505010507 | 12 | 109 | 0.0 | 1.6 | 0.00 | 0.00 | 0.00 | 59 | 1006.8 |
| 20260505010015 | 13 | 110 | 0.0 | 1.6 | 0.00 | 0.00 | 0.00 | 58 | 1006.7 |
| 20260505005508 | 13 | 106 | 0.0 | 0.0 | 0.00 | 0.00 | 0.00 | 56 | 1006.7 |
| 20260505005008 | 13 | 106 | 0.0 | 0.0 | 0.00 | 0.00 | 0.00 | 54 | 1006.6 |
| 20260505004519 | 14 | 106 | 0.0 | 0.0 | 0.00 | 0.00 | 0.00 | 53 | 1006.4 |
| 20260505004008 | 14 | 106 | 0.0 | 3.2 | 0.00 | 0.00 | 0.00 | 51 | 1006.2 |
| 20260505003508 | 15 | 106 | 0.0 | 3.2 | 0.00 | 0.00 | 0.00 | 50 | 1006.1 |
| 20260505003027 | 15 | 120 | 0.0 | 1.6 | 0.00 | 0.00 | 0.00 | 48 | 1006.1 |
| 20260505002511 | 15 | 94 | 0.0 | 1.6 | 0.00 | 0.00 | 0.00 | 45 | 1006.1 |
| 20260505002008 | 16 | 92 | 0.0 | 1.6 | 0.00 | 0.00 | 0.00 | 44 | 1005.9 |
| 20260505001528 | 16 | 151 | 0.0 | 0.0 | 0.00 | 0.00 | 0.00 | 43 | 1005.8 |
| 20260505001007 | 16 | 151 | 0.0 | 0.0 | 0.00 | 0.00 | 0.00 | 41 | 1005.7 |
| 20260505000506 | 16 | 151 | 0.0 | 1.6 | 0.00 | 0.00 | 0.00 | 42 | 1005.6 |
| 20260505000013 | 17 | 190 | 0.0 | 1.6 | 0.00 | 0.00 | 0.00 | 40 | 1005.7 |
| 20260504235507 | 17 | 150 | 0.0 | 1.6 | 0.00 | 0.00 | 0.00 | 38 | 1005.6 |
| 20260504235006 | 17 | 233 | 0.0 | 0.0 | 0.00 | 0.00 | 0.00 | 38 | 1005.6 |
| 20260504234516 | 17 | 233 | 0.0 | 0.0 | 0.00 | 0.00 | 0.00 | 38 | 1005.5 |
| 20260504234006 | 18 | 234 | 0.0 | 0.0 | 0.00 | 0.00 | 0.00 | 36 | 1005.5 |
| 20260504233507 | 18 | 233 | 0.0 | 6.4 | 0.00 | 0.00 | 0.00 | 35 | 1005.5 |
| 20260504233020 | 19 | 234 | 0.0 | 6.4 | 0.00 | 0.00 | 0.00 | 34 | 1005.4 |
| 20260504232507 | 19 | 248 | 1.6 | 6.4 | 0.00 | 0.00 | 0.00 | 35 | 1005.3 |
| 20260504232010 | 19 | 221 | 0.0 | 4.8 | 0.00 | 0.00 | 0.00 | 34 | 1005.2 |
| 20260504231529 | 20 | 238 | 3.2 | 11.3 | 0.00 | 0.00 | 0.00 | 33 | 1005.1 |
| 20260504231007 | 20 | 245 | 0.0 | 11.3 | 0.00 | 0.00 | 0.00 | 33 | 1004.9 |
| 20260504230509 | 20 | 213 | 3.2 | 8.0 | 0.00 | 0.00 | 0.00 | 32 | 1004.9 |
| 20260504230028 | 20 | 148 | 0.0 | 8.0 | 0.00 | 0.00 | 0.00 | 33 | 1004.9 |
| 20260504225512 | 20 | 160 | 1.6 | 8.0 | 0.00 | 0.00 | 0.00 | 32 | 1004.9 |
| 20260504225006 | 20 | 281 | 3.2 | 8.0 | 0.00 | 0.00 | 0.00 | 32 | 1004.8 |
| 20260504224517 | 20 | 253 | 0.0 | 9.7 | 0.00 | 0.00 | 0.00 | 32 | 1004.8 |
| 20260504224006 | 20 | 231 | 3.2 | 9.7 | 0.00 | 0.00 | 0.00 | 32 | 1004.8 |
| 20260504223509 | 20 | 261 | 1.6 | 8.0 | 0.00 | 0.00 | 0.00 | 32 | 1004.7 |
| 20260504223017 | 20 | 143 | 1.6 | 8.0 | 0.00 | 0.00 | 0.00 | 32 | 1004.7 |
| 20260504222505 | 20 | 246 | 1.6 | 8.0 | 0.00 | 0.00 | 0.00 | 32 | 1004.7 |
| 20260504222008 | 20 | 45 | 1.6 | 9.7 | 0.00 | 0.00 | 0.00 | 31 | 1004.7 |
| 20260504221525 | 20 | 256 | 0.0 | 11.3 | 0.00 | 0.00 | 0.00 | 31 | 1004.7 |
| 20260504221011 | 20 | 103 | 1.6 | 11.3 | 0.00 | 0.00 | 0.00 | 31 | 1004.7 |
| 20260504220509 | 20 | 147 | 3.2 | 11.3 | 0.00 | 0.00 | 0.00 | 30 | 1004.7 |
| 20260504220024 | 21 | 256 | 3.2 | 9.7 | 0.00 | 0.00 | 0.00 | 31 | 1004.7 |
| 20260504215512 | 21 | 246 | 3.2 | 19.3 | 0.00 | 0.00 | 0.00 | 30 | 1004.8 |
| 20260504215009 | 21 | 60 | 1.6 | 19.3 | 0.00 | 0.00 | 0.00 | 30 | 1004.7 |
| 20260504214537 | 21 | 198 | 8.0 | 19.3 | 0.00 | 0.00 | 0.00 | 29 | 1004.9 |
| 20260504214012 | 21 | 262 | 3.2 | 19.3 | 0.00 | 0.00 | 0.00 | 29 | 1004.8 |
| 20260504213506 | 21 | 134 | 4.8 | 19.3 | 0.00 | 0.00 | 0.00 | 29 | 1004.9 |
| 20260504213015 | 21 | 219 | 3.2 | 9.7 | 0.00 | 0.00 | 0.00 | 30 | 1004.8 |
| 20260504212509 | 21 | 226 | 1.6 | 8.0 | 0.00 | 0.00 | 0.00 | 31 | 1004.7 |
| 20260504212008 | 21 | 11 | 3.2 | 14.5 | 0.00 | 0.00 | 0.00 | 31 | 1004.8 |
| 20260504211522 | 21 | 255 | 6.4 | 14.5 | 0.00 | 0.00 | 0.00 | 30 | 1004.8 |
| 20260504211010 | 21 | 265 | 1.6 | 12.9 | 0.00 | 0.00 | 0.00 | 30 | 1004.7 |
| 20260504210514 | 21 | 218 | 4.8 | 12.9 | 0.00 | 0.00 | 0.00 | 30 | 1004.7 |
| 20260504210022 | 21 | 315 | 3.2 | 16.1 | 0.00 | 0.00 | 0.00 | 31 | 1004.7 |
| 20260504205511 | 21 | 2 | 4.8 | 16.1 | 0.00 | 0.00 | 0.00 | 31 | 1004.7 |
| 20260504205014 | 21 | 236 | 4.8 | 16.1 | 0.00 | 0.00 | 0.00 | 31 | 1004.6 |
| 20260504204525 | 21 | 229 | 1.6 | 17.7 | 0.00 | 0.00 | 0.00 | 32 | 1004.6 |
| 20260504204008 | 21 | 213 | 6.4 | 17.7 | 0.00 | 0.00 | 0.00 | 31 | 1004.7 |
| 20260504203510 | 21 | 21 | 1.6 | 16.1 | 0.00 | 0.00 | 0.00 | 31 | 1004.7 |
| 20260504203030 | 21 | 105 | 1.6 | 17.7 | 0.00 | 0.00 | 0.00 | 32 | 1004.6 |
| 20260504202511 | 21 | 327 | 4.8 | 17.7 | 0.00 | 0.00 | 0.00 | 31 | 1004.6 |
| 20260504202007 | 21 | 240 | 4.8 | 17.7 | 0.00 | 0.00 | 0.00 | 31 | 1004.6 |
| 20260504201519 | 21 | 270 | 1.6 | 12.9 | 0.00 | 0.00 | 0.00 | 33 | 1004.6 |
| 20260504201008 | 21 | 242 | 6.4 | 12.9 | 0.00 | 0.00 | 0.00 | 33 | 1004.6 |
| 20260504200508 | 21 | 285 | 1.6 | 11.3 | 0.00 | 0.00 | 0.00 | 33 | 1004.6 |
| 20260504200022 | 21 | 2 | 6.4 | 22.5 | 0.00 | 0.00 | 0.00 | 33 | 1004.7 |
| 20260504195506 | 21 | 217 | 8.0 | 22.5 | 0.00 | 0.00 | 0.00 | 32 | 1004.5 |
| 20260504195009 | 21 | 234 | 3.2 | 22.5 | 0.00 | 0.00 | 0.00 | 33 | 1004.5 |
| 20260504194524 | 21 | 348 | 4.8 | 22.5 | 0.00 | 0.00 | 0.00 | 33 | 1004.7 |
| 20260504194010 | 21 | 274 | 3.2 | 16.1 | 0.00 | 0.00 | 0.00 | 34 | 1004.6 |
| 20260504193519 | 21 | 218 | 3.2 | 16.1 | 0.00 | 0.00 | 0.00 | 34 | 1004.7 |
| 20260504193026 | 20 | 271 | 4.8 | 16.1 | 0.00 | 0.00 | 0.00 | 35 | 1004.7 |
| 20260504192512 | 20 | 245 | 4.8 | 9.7 | 0.00 | 0.00 | 0.00 | 34 | 1004.7 |
| 20260504192010 | 20 | 272 | 3.2 | 11.3 | 0.00 | 0.00 | 0.00 | 36 | 1004.8 |
| 20260504191528 | 20 | 252 | 1.6 | 11.3 | 0.00 | 0.00 | 0.00 | 35 | 1004.9 |
| 20260504191011 | 19 | 174 | 3.2 | 9.7 | 0.00 | 0.00 | 0.00 | 36 | 1005.0 |
| 20260504190513 | 19 | 257 | 3.2 | 11.3 | 0.00 | 0.00 | 0.00 | 38 | 1005.0 |
| 20260504190021 | 19 | 209 | 4.8 | 11.3 | 0.00 | 0.00 | 0.00 | 36 | 1005.1 |
| 20260504185507 | 18 | 23 | 1.6 | 9.7 | 0.00 | 0.00 | 0.00 | 38 | 1005.1 |
| 20260504185002 | 18 | 215 | 1.6 | 8.0 | 0.00 | 0.00 | 0.00 | 36 | 1005.1 |
| 20260504184503 | 18 | 99 | 0.0 | 9.7 | 0.00 | 0.00 | 0.00 | 38 | 1005.1 |
| 20260504184003 | 18 | 345 | 1.6 | 12.9 | 0.00 | 0.00 | 0.00 | 37 | 1005.1 |
| 20260504183504 | 18 | 269 | 1.6 | 12.9 | 0.00 | 0.00 | 0.00 | 36 | 1005.1 |
| 20260504183007 | 18 | 311 | 1.6 | 16.1 | 0.00 | 0.00 | 0.00 | 36 | 1005.0 |
| 20260504182505 | 18 | 208 | 4.8 | 16.1 | 0.00 | 0.00 | 0.00 | 35 | 1005.1 |
| 20260504182008 | 18 | 238 | 0.0 | 17.7 | 0.00 | 0.00 | 0.00 | 35 | 1005.0 |
| 20260504181512 | 18 | 261 | 6.4 | 17.7 | 0.00 | 0.00 | 0.00 | 34 | 1005.0 |
| 20260504181007 | 19 | 262 | 3.2 | 17.7 | 0.00 | 0.00 | 0.00 | 34 | 1005.0 |
| 20260504180507 | 19 | 27 | 3.2 | 20.9 | 0.00 | 0.00 | 0.00 | 35 | 1005.1 |
| 20260504180017 | 19 | 72 | 6.4 | 20.9 | 0.00 | 0.00 | 0.00 | 33 | 1005.0 |
| 20260504175507 | 19 | 117 | 4.8 | 17.7 | 0.00 | 0.00 | 0.00 | 33 | 1005.1 |
| 20260504175008 | 19 | 186 | 4.8 | 14.5 | 0.00 | 0.00 | 0.00 | 34 | 1005.0 |
| 20260504174520 | 19 | 105 | 4.8 | 22.5 | 0.00 | 0.00 | 0.00 | 33 | 1005.0 |
| 20260504174003 | 19 | 247 | 3.2 | 22.5 | 0.00 | 0.00 | 0.00 | 32 | 1004.9 |
| 20260504173506 | 20 | 266 | 4.8 | 16.1 | 0.00 | 0.00 | 0.00 | 32 | 1004.9 |
| 20260504173003 | 19 | 252 | 6.4 | 33.8 | 0.00 | 0.00 | 0.00 | 32 | 1004.9 |
| 20260504172507 | 19 | 224 | 12.9 | 33.8 | 0.00 | 0.00 | 0.00 | 30 | 1004.9 |
| 20260504172006 | 19 | 199 | 12.9 | 24.1 | 0.00 | 0.00 | 0.00 | 30 | 1005.0 |
| 20260504171507 | 19 | 213 | 8.0 | 24.1 | 0.00 | 0.00 | 0.00 | 31 | 1004.8 |
| 20260504171008 | 19 | 198 | 4.8 | 25.7 | 0.00 | 0.00 | 0.00 | 32 | 1004.8 |
| 20260504170505 | 19 | 231 | 9.7 | 25.7 | 0.00 | 0.00 | 0.00 | 32 | 1004.9 |
| 20260504151002 | 17 | 206 | 8.0 | 24.1 | 0.00 | 0.00 | 0.00 | 41 | 1006.1 |
| 20260504150504 | 16 | 165 | 6.4 | 24.1 | 0.00 | 0.00 | 0.00 | 41 | 1006.2 |
| 20260504141017 | 14 | 231 | 3.2 | 16.1 | 0.00 | 0.00 | 0.00 | 46 | 1007.0 |
| 20260504140509 | 14 | 224 | 6.4 | 16.1 | 0.00 | 0.00 | 0.00 | 46 | 1007.1 |
| 20260504130507 | 11 | 200 | 6.4 | 16.1 | 0.00 | 0.00 | 0.00 | 55 | 1007.8 |
| 20260504110508 | 6 | 201 | 1.6 | 4.8 | 0.00 | 0.00 | 0.00 | 60 | 1008.2 |
| 20260504100504 | 5 | 238 | 0.0 | 3.2 | 0.00 | 0.00 | 0.00 | 61 | 1008.2 |
| 20260504081527 | 3 | 203 | 0.0 | 3.2 | 0.00 | 0.00 | 0.00 | 66 | 1008.2 |
| 20260504081012 | 3 | 221 | 0.0 | 0.0 | 0.00 | 0.00 | 0.00 | 67 | 1008.1 |
| 20260504080508 | 3 | 221 | 0.0 | 0.0 | 0.00 | 0.00 | 0.00 | 67 | 1008.1 |
| 20260504050509 | 2 | 217 | 1.6 | 3.2 | 0.00 | 0.00 | 0.00 | 69 | 1007.9 |
| 20260504050020 | 2 | 236 | 0.0 | 3.2 | 0.00 | 0.00 | 0.00 | 69 | 1007.9 |
| 20260504045506 | 2 | 229 | 0.0 | 3.2 | 0.00 | 0.00 | 0.00 | 70 | 1007.9 |
| 20260504045014 | 2 | 241 | 0.0 | 3.2 | 0.00 | 0.00 | 0.00 | 71 | 1007.8 |
| 20260504044522 | 2 | 235 | 0.0 | 3.2 | 0.00 | 0.00 | 0.00 | 71 | 1007.8 |
| 20260504044006 | 2 | 235 | 0.0 | 3.2 | 0.00 | 0.00 | 0.00 | 72 | 1007.8 |
| 20260504043510 | 2 | 233 | 0.0 | 1.6 | 0.00 | 0.00 | 0.00 | 72 | 1007.7 |
| 20260504043025 | 2 | 233 | 0.0 | 1.6 | 0.00 | 0.00 | 0.00 | 71 | 1007.7 |
| 20260504042510 | 2 | 233 | 0.0 | 0.0 | 0.00 | 0.00 | 0.00 | 71 | 1007.8 |
| 20260504042011 | 2 | 235 | 0.0 | 0.0 | 0.00 | 0.00 | 0.00 | 71 | 1007.7 |
| 20260504041509 | 2 | 235 | 0.0 | 1.6 | 0.00 | 0.00 | 0.00 | 70 | 1007.7 |
| 20260504041005 | 2 | 235 | 0.0 | 1.6 | 0.00 | 0.00 | 0.00 | 69 | 1007.7 |
| 20260504040506 | 2 | 224 | 0.0 | 0.0 | 0.00 | 0.00 | 0.00 | 70 | 1007.7 |
| 20260504040016 | 2 | 225 | 0.0 | 1.6 | 0.00 | 0.00 | 0.00 | 69 | 1007.6 |
| 20260504035507 | 2 | 225 | 0.0 | 1.6 | 0.00 | 0.00 | 0.00 | 69 | 1007.6 |
| 20260504035010 | 2 | 224 | 0.0 | 1.6 | 0.00 | 0.00 | 0.00 | 70 | 1007.6 |
| 20260504034520 | 2 | 206 | 0.0 | 0.0 | 0.00 | 0.00 | 0.00 | 72 | 1007.5 |
| 20260504034010 | 2 | 206 | 0.0 | 0.0 | 0.00 | 0.00 | 0.00 | 72 | 1007.5 |
| 20260504033509 | 2 | 206 | 0.0 | 0.0 | 0.00 | 0.00 | 0.00 | 71 | 1007.4 |
| 20260504033022 | 2 | 206 | 0.0 | 0.0 | 0.00 | 0.00 | 0.00 | 70 | 1007.4 |
| 20260504032509 | 2 | 206 | 0.0 | 0.0 | 0.00 | 0.00 | 0.00 | 70 | 1007.4 |
| 20260504032010 | 3 | 206 | 0.0 | 1.6 | 0.00 | 0.00 | 0.00 | 71 | 1007.4 |
| 20260504031526 | 3 | 214 | 0.0 | 1.6 | 0.00 | 0.00 | 0.00 | 69 | 1007.4 |
| 20260504031012 | 3 | 214 | 0.0 | 1.6 | 0.00 | 0.00 | 0.00 | 69 | 1007.4 |
| 20260504030510 | 2 | 202 | 0.0 | 0.0 | 0.00 | 0.00 | 0.00 | 71 | 1007.4 |
| 20260504030014 | 2 | 202 | 0.0 | 0.0 | 0.00 | 0.00 | 0.00 | 68 | 1007.4 |
| 20260504025507 | 3 | 202 | 0.0 | 0.0 | 0.00 | 0.00 | 0.00 | 68 | 1007.4 |
| 20260504025009 | 3 | 202 | 0.0 | 0.0 | 0.00 | 0.00 | 0.00 | 68 | 1007.3 |
| 20260504024518 | 3 | 202 | 0.0 | 0.0 | 0.00 | 0.00 | 0.00 | 67 | 1007.4 |
| 20260504024009 | 3 | 202 | 0.0 | 0.0 | 0.00 | 0.03 | 0.00 | 67 | 1007.3 |
| 20260504023508 | 3 | 202 | 0.0 | 0.0 | 0.00 | 0.03 | 0.00 | 67 | 1007.3 |
| 20260504023021 | 3 | 202 | 0.0 | 0.0 | 0.00 | 0.03 | 0.00 | 67 | 1007.3 |
| 20260504022510 | 3 | 202 | 0.0 | 0.0 | 0.00 | 0.03 | 0.00 | 66 | 1007.5 |
| 20260504022008 | 3 | 204 | 0.0 | 0.0 | 0.00 | 0.03 | 0.00 | 65 | 1007.4 |
| 20260504021509 | 4 | 304 | 0.0 | 0.0 | 0.00 | 0.03 | 0.00 | 63 | 1007.4 |
| 20260504021002 | 4 | 304 | 0.0 | 0.0 | 0.00 | 0.03 | 0.00 | 63 | 1007.4 |
| 20260504020505 | 4 | 304 | 0.0 | 0.0 | 0.00 | 0.03 | 0.00 | 63 | 1007.4 |
| 20260504020010 | 4 | 304 | 0.0 | 0.0 | 0.00 | 0.03 | 0.00 | 63 | 1007.3 |
| 20260504015505 | 4 | 304 | 0.0 | 0.0 | 0.00 | 0.03 | 0.00 | 62 | 1007.2 |
| 20260504015006 | 4 | 304 | 0.0 | 0.0 | 0.00 | 0.03 | 0.00 | 62 | 1007.3 |
| 20260504014514 | 5 | 304 | 0.0 | 0.0 | 0.00 | 0.03 | 0.00 | 61 | 1007.2 |
| 20260504014006 | 5 | 304 | 0.0 | 0.0 | 0.00 | 0.03 | 0.00 | 60 | 1007.2 |
| 20260504013511 | 5 | 304 | 0.0 | 0.0 | 0.00 | 0.03 | 0.00 | 58 | 1007.2 |
| 20260504013022 | 5 | 304 | 0.0 | 0.0 | 0.00 | 0.03 | 0.00 | 58 | 1007.2 |
| 20260504012510 | 5 | 304 | 0.0 | 0.0 | 0.00 | 0.03 | 0.00 | 57 | 1007.1 |
| 20260504012009 | 6 | 304 | 0.0 | 0.0 | 0.00 | 0.03 | 0.00 | 56 | 1007.1 |
| 20260504011522 | 6 | 304 | 0.0 | 0.0 | 0.00 | 0.03 | 0.00 | 55 | 1007.1 |